This is the latest recevied weather packets stored in our database for station/object K6MBY. If no packets are shown the sender has not sent any weather packets the latest 1 day(s).
| Time | Temp. | Humidity | Pressure | Rain* | Wind** | Luminosity | Snow |
|---|---|---|---|---|---|---|---|
| 1778032227 | 12.22° C | 85% | 1018.3 hPa | 0 mm | - | 116 W/m² | - |
| 1778031925 | 12.78° C | 84% | 1018.3 hPa | 0 mm | - | 128 W/m² | - |
| 1778031621 | 12.78° C | 83% | 1018.3 hPa | 0 mm | - | 140 W/m² | - |
| 1778031319 | 13.33° C | 82% | 1018.4 hPa | 0 mm | - | 156 W/m² | - |
| 1778030711 | 13.33° C | 83% | 1018.6 hPa | 0 mm | - | 182 W/m² | - |
| 1778030409 | 13.33° C | 82% | 1018.2 hPa | 0 mm | - | 197 W/m² | - |
| 1778030106 | 13.33° C | 83% | 1018.5 hPa | 0 mm | - | 213 W/m² | - |
| 1778029502 | 13.33° C | 82% | 1018.3 hPa | 0 mm | - | 243 W/m² | - |
| 1778029197 | 13.33° C | 82% | 1018.4 hPa | 0 mm | - | 260 W/m² | - |
| 1778028895 | 13.33° C | 82% | 1018.3 hPa | 0 mm | - | 275 W/m² | - |
| 1778028590 | 13.33° C | 82% | 1018.5 hPa | 0 mm | - | 291 W/m² | - |
| 1778027984 | 13.89° C | 81% | 1018.5 hPa | 0 mm | - | 322 W/m² | - |
| 1778027681 | 13.89° C | 81% | 1018.6 hPa | 0 mm | - | 338 W/m² | - |
| 1778027377 | 13.33° C | 82% | 1018.6 hPa | 0 mm | - | 354 W/m² | - |
| 1778027073 | 13.33° C | 82% | 1018.6 hPa | 0 mm | - | 370 W/m² | - |
| 1778026466 | 13.89° C | 81% | 1018.7 hPa | 0 mm | - | 402 W/m² | - |
| 1778025861 | 13.33° C | 82% | 1018.7 hPa | 0 mm | - | 434 W/m² | - |
| 1778021622 | 14.44° C | 79% | 1019.3 hPa | 0 mm | - | 623 W/m² | - |
| 1778020712 | 15° C | 78% | 1019.2 hPa | 0 mm | - | 656 W/m² | - |
| 1778019195 | 14.44° C | 80% | 1019.4 hPa | 0 mm | - | 710 W/m² | - |
| 1778018892 | 13.89° C | 81% | 1019.5 hPa | 0 mm | - | 717 W/m² | - |
| 1778018589 | 14.44° C | 80% | 1019.4 hPa | 0 mm | - | 728 W/m² | - |
| 1778015864 | 14.44° C | 82% | 1019.7 hPa | 0 mm | - | 558 W/m² | - |
| 1778014652 | 13.89° C | 82% | 1019.7 hPa | 0 mm | - | 505 W/m² | - |
| 1778014350 | 13.89° C | 82% | 1019.7 hPa | 0 mm | - | 520 W/m² | - |
* Rain latest hour (hover to see other rain measurements)
** Current wind speed in m/s (hover to see current wind gust speed)